Change the Weather History Date:

Thursday, October 25, 2012

  Actual Average Record
Temperature  
Mean Temperature 52 °F -  
Max Temperature 64 °F 49 °F 69 °F (2013)
Min Temperature 39 °F 38 °F 28 °F (1997)
Degree Days  
Heating Degree Days 14    
Growing Degree Days 2 (Base 50)    
Moisture  
Dew Point 46 °F    
Average Humidity 88    
Maximum Humidity 100    
Minimum Humidity 64    
Precipitation  
Precipitation 0.00 in - - ()
Sea Level Pressure  
Sea Level Pressure 29.93 in    
Wind  
Wind Speed 4 mph ()    
Max Wind Speed 9 mph    
Max Gust Speed -    
Visibility 4.4 miles    
Events      
Averages and records for this station are not official NWS values.
T = Trace of Precipitation, MM = Missing Value Source: Averaged Metar Reports

Daily Weather History Graph

Daily Weather History Graph

Search for Another Location

Airport or City:

Trip Planner

Search our weather history database for the weather conditions in past years. The results will help you decide how hot, cold, wet, or windy it might be!

Date:

Astronomy

Oct. 25, 2012 Rise Set
Actual Time 8:16 AM CEST 6:31 PM CEST
Civil Twilight 7:43 AM CEST 7:04 PM CEST
Nautical Twilight 7:07 AM CEST 7:40 PM CEST
Astronomical Twilight 6:30 AM CEST 8:17 PM CEST
Moon 4:26 PM CEST (10/25) 3:37 AM CEST (10/25)
Length of Visible Light 11h 20m
Length of Day
10h 15m
Waxing Gibbous, 82% of the Moon is Illuminated
Oct 25
Waxing Gibbous
Oct 29
Full
Nov 7
Last Quarter
Nov 13
New
Nov 20
First Quarter

Hourly Weather History & Observations

Time (CEST) Temp. Windchill Dew Point Humidity Pressure Visibility Wind Dir Wind Speed Gust Speed Precip Events Conditions
12:00 AM 42.8 °F - 42.8 °F 100% 30.01 in - Calm Calm - N/A   Unknown
12:30 AM 42.8 °F - 42.8 °F 100% 30.01 in - Calm Calm - N/A   Unknown
1:00 AM 42.8 °F - 42.8 °F 100% 30.01 in 1.3 mi Variable 1.2 mph - N/A   Unknown
1:30 AM 42.8 °F - 42.8 °F 100% 30.01 in 1.5 mi SSE 2.3 mph - N/A   Unknown
2:00 AM 41.0 °F - 41.0 °F 100% 30.01 in 1.5 mi Calm Calm - N/A   Unknown
2:30 AM 41.0 °F 39.0 °F 41.0 °F 100% 30.01 in - Variable 3.5 mph - N/A   Unknown
3:00 AM 41.0 °F - 41.0 °F 100% 30.01 in - SE 2.3 mph - N/A   Unknown
3:30 AM 41.0 °F 39.0 °F 41.0 °F 100% 30.01 in - ESE 3.5 mph - N/A   Unknown
4:00 AM 41.0 °F - 41.0 °F 100% 30.01 in 1.9 mi Variable 2.3 mph - N/A   Unknown
4:30 AM 41.0 °F - 41.0 °F 100% 29.98 in 1.3 mi ESE 2.3 mph - N/A   Unknown
5:00 AM 41.0 °F - 41.0 °F 100% 29.98 in 0.9 mi East 2.3 mph - N/A   Unknown
5:30 AM 41.0 °F - 41.0 °F 100% 29.98 in 1.7 mi Variable 2.3 mph - N/A   Unknown
6:00 AM 41.0 °F 39.0 °F 41.0 °F 100% 29.98 in - East 3.5 mph - N/A   Unknown
6:30 AM 39.2 °F - 39.2 °F 100% 29.98 in 1.6 mi Variable 2.3 mph - N/A   Unknown
7:00 AM 39.2 °F - 39.2 °F 100% 29.95 in 1.6 mi SSE 1.2 mph - N/A   Unknown
7:30 AM 41.0 °F - 41.0 °F 100% 29.98 in 1.8 mi Variable 2.3 mph - N/A   Unknown
8:00 AM 41.0 °F 37.1 °F 39.2 °F 93% 29.95 in - East 5.8 mph - N/A   Unknown
8:30 AM 41.0 °F 39.0 °F 41.0 °F 100% 29.98 in - East 3.5 mph - N/A   Unknown
9:00 AM 42.8 °F 41.1 °F 42.8 °F 100% 29.98 in - ESE 3.5 mph - N/A   Unknown
9:30 AM 44.6 °F 40.7 °F 44.6 °F 100% 29.98 in 3.1 mi ESE 6.9 mph - N/A   Unknown
10:00 AM 46.4 °F 43.5 °F 44.6 °F 93% 29.98 in 4.3 mi East 5.8 mph - N/A   Unknown
10:30 AM 48.2 °F - 46.4 °F 93% 29.98 in 6.2 mi SE 6.9 mph - N/A   Unknown
11:00 AM 50.0 °F - 44.6 °F 82% 29.98 in 6.2 mi East 5.8 mph - N/A   Unknown
11:30 AM 51.8 °F - 46.4 °F 82% 29.98 in 6.2 mi ESE 6.9 mph - N/A   Unknown
12:00 PM 53.6 °F - 48.2 °F 82% 29.98 in 6.2 mi East 6.9 mph - N/A   Unknown
12:30 PM 55.4 °F - 48.2 °F 77% 29.95 in 6.2 mi ENE 9.2 mph - N/A   Unknown
1:00 PM 57.2 °F - 50.0 °F 77% 29.95 in 6.2 mi East 6.9 mph - N/A   Unknown
1:30 PM 59.0 °F - 51.8 °F 77% 29.92 in 6.2 mi ESE 5.8 mph - N/A   Unknown
2:00 PM 60.8 °F - 51.8 °F 72% 29.92 in 6.2 mi East 4.6 mph - N/A   Unknown
2:30 PM 60.8 °F - 51.8 °F 72% 29.92 in 6.2 mi East 5.8 mph - N/A   Unknown
3:00 PM 62.6 °F - 53.6 °F 72% 29.89 in 6.2 mi East 6.9 mph - N/A   Unknown
3:30 PM 62.6 °F - 53.6 °F 72% 29.89 in 6.2 mi East 5.8 mph - N/A   Unknown
4:00 PM 64.4 °F - 53.6 °F 68% 29.89 in 6.2 mi East 5.8 mph - N/A   Unknown
4:30 PM 64.4 °F - 51.8 °F 64% 29.86 in 6.2 mi ENE 6.9 mph - N/A   Unknown
5:00 PM 62.6 °F - 51.8 °F 68% 29.86 in 6.2 mi ENE 9.2 mph - N/A   Unknown
5:30 PM 60.8 °F - 51.8 °F 72% 29.86 in 6.2 mi East 9.2 mph - N/A   Unknown
6:00 PM 59.0 °F - 51.8 °F 77% 29.86 in 6.2 mi East 8.1 mph - N/A   Unknown
6:30 PM 57.2 °F - 50.0 °F 77% 29.86 in 6.2 mi ENE 6.9 mph - N/A   Unknown
7:00 PM 57.2 °F - 48.2 °F 72% 29.86 in 6.2 mi East 8.1 mph - N/A   Unknown
7:30 PM 55.4 °F - 48.2 °F 77% 29.86 in 5.0 mi ENE 8.1 mph - N/A   Unknown
8:00 PM 53.6 °F - 48.2 °F 82% 29.86 in 5.0 mi East 8.1 mph - N/A   Unknown
8:30 PM 51.8 °F - 46.4 °F 82% 29.86 in 4.3 mi East 5.8 mph - N/A   Unknown
9:00 PM 50.0 °F - 46.4 °F 87% 29.86 in 4.3 mi East 5.8 mph - N/A   Unknown
9:30 PM 51.8 °F - 48.2 °F 88% 29.86 in 3.7 mi East 5.8 mph - N/A   Unknown
10:00 PM 50.0 °F - 46.4 °F 87% 29.86 in 3.7 mi East 6.9 mph - N/A   Unknown
10:30 PM 50.0 °F - 46.4 °F 87% 29.86 in 3.1 mi East 6.9 mph - N/A   Unknown
11:00 PM 50.0 °F - 46.4 °F 87% 29.83 in 3.1 mi ENE 8.1 mph - N/A   Unknown
11:30 PM 50.0 °F - 46.4 °F 87% 29.83 in 4.3 mi East 6.9 mph - N/A   Unknown